DW7413 Weather Reports


Display with metric or nautical units.
time (UTC)temp
F
wind
direction
speed
MPH
gust
MPH
rain 1hr
in
rain 24hr
in
rain mn
in
humidity
%
barometer
mb
20171123184453 66 272 0.0 0.0 0.00 0.00 0.00 69 1019.8
20171123183453 66 13 0.0 0.0 0.00 0.00 0.00 69 1020.1
20171123182453 65 13 0.0 0.0 0.00 0.00 0.00 69 1019.9
20171123181453 65 13 0.0 0.0 0.00 0.00 0.00 66 1020.0
20171123180453 65 15 0.0 0.0 0.00 0.00 0.00 66 1020.1
20171123175454 65 12 0.0 0.0 0.00 0.00 0.00 66 1020.2
20171123174453 66 11 0.0 0.0 0.00 0.00 0.00 66 1020.2
20171123173453 67 12 0.0 2.0 0.00 0.00 0.00 65 1020.1
20171123172453 68 9 0.0 0.0 0.00 0.00 0.00 63 1020.1
20171123171453 68 9 0.0 1.0 0.00 0.00 0.00 62 1019.8
20171123170453 68 9 0.0 2.0 0.00 0.00 0.00 62 1019.7
20171123165453 66 9 0.0 1.0 0.00 0.00 0.00 67 1019.7
20171123164453 65 9 0.0 1.0 0.00 0.00 0.00 67 1019.9
20171123163453 63 5 0.0 0.0 0.00 0.00 0.00 71 1019.8
20171123162453 62 5 0.0 0.0 0.00 0.00 0.00 72 1019.9
20171123161453 61 5 0.0 0.0 0.00 0.00 0.00 74 1019.6
20171123160453 60 10 0.0 0.0 0.00 0.00 0.00 75 1019.5
20171123155453 59 10 0.0 0.0 0.00 0.00 0.00 75 1019.4
20171123154453 58 10 0.0 0.0 0.00 0.00 0.00 78 1019.4
20171123153453 56 10 0.0 2.0 0.00 0.00 0.00 79 1019.2
20171123152453 56 329 0.0 1.0 0.00 0.00 0.00 80 1019.1
20171123151453 56 323 0.0 1.0 0.00 0.00 0.00 81 1019.1
20171123150453 56 260 0.0 0.0 0.00 0.00 0.00 82 1019.2
20171123145453 55 260 0.0 0.0 0.00 0.00 0.00 82 1019.0
20171123144453 55 260 0.0 0.0 0.00 0.00 0.00 82 1019.1
20171123143453 55 260 0.0 0.0 0.00 0.00 0.00 82 1018.9
20171123142453 56 260 0.0 0.0 0.00 0.00 0.00 82 1018.8
20171123141453 56 260 0.0 0.0 0.00 0.00 0.00 83 1019.0
20171123140453 56 260 0.0 0.0 0.00 0.00 0.00 83 1019.2
20171123135453 56 257 0.0 0.0 0.00 0.00 0.00 83 1018.8
20171123134453 56 257 0.0 0.0 0.00 0.00 0.00 82 1019.2
20171123133453 57 257 0.0 0.0 0.00 0.00 0.00 81 1018.9
20171123132453 57 257 0.0 0.0 0.00 0.00 0.00 81 1018.8
20171123131453 57 257 0.0 0.0 0.00 0.00 0.00 80 1018.9
20171123130453 57 257 0.0 0.0 0.00 0.00 0.00 80 1019.3
20171123125453 57 346 0.0 0.0 0.00 0.00 0.00 79 1018.9
20171123124453 56 346 0.0 0.0 0.00 0.00 0.00 83 1018.6
20171123123454 56 338 0.0 0.0 0.00 0.00 0.00 85 1018.6
20171123122453 56 338 0.0 0.0 0.00 0.00 0.00 85 1018.8
20171123121453 56 338 0.0 0.0 0.00 0.00 0.00 84 1018.9
20171123120453 57 338 0.0 0.0 0.00 0.00 0.00 84 1019.0
20171123115454 57 338 0.0 0.0 0.00 0.00 0.00 83 1019.1
20171123114453 57 338 0.0 0.0 0.00 0.00 0.00 83 1019.3
20171123113453 57 338 0.0 0.0 0.00 0.00 0.00 83 1019.3
20171123112453 58 337 0.0 0.0 0.00 0.00 0.00 83 1019.3
20171123111453 58 338 0.0 0.0 0.00 0.00 0.00 83 1019.5
20171123110453 58 338 0.0 0.0 0.00 0.00 0.00 83 1019.4
20171123105453 58 338 0.0 0.0 0.00 0.00 0.00 83 1019.4
20171123104453 58 338 0.0 0.0 0.00 0.00 0.00 84 1019.3
20171123103453 58 337 0.0 0.0 0.00 0.00 0.00 84 1019.2
20171123102453 58 338 0.0 1.0 0.00 0.00 0.00 84 1019.6
20171123101453 58 338 0.0 1.0 0.00 0.00 0.00 85 1019.7
20171123100453 58 355 0.0 1.0 0.00 0.00 0.00 86 1019.6
20171123095453 57 5 0.0 1.0 0.00 0.00 0.00 88 1019.8
20171123094453 57 11 0.0 1.0 0.00 0.00 0.00 88 1019.5
20171123093453 56 5 0.0 0.0 0.00 0.00 0.00 90 1019.5
20171123092453 56 5 0.0 0.0 0.00 0.00 0.00 90 1019.6
20171123091454 56 5 0.0 0.0 0.00 0.00 0.00 90 1019.7
20171123090453 56 5 0.0 0.0 0.00 0.00 0.00 90 1020.0
20171123085453 56 5 0.0 0.0 0.00 0.00 0.00 90 1020.0
20171123084453 56 5 0.0 1.0 0.00 0.00 0.00 89 1019.8
20171123083453 56 5 0.0 2.0 0.00 0.00 0.00 88 1019.9
20171123082453 56 327 0.0 1.0 0.00 0.00 0.00 87 1019.9
20171123081453 57 345 0.0 3.0 0.00 0.00 0.00 86 1020.0
20171123080453 58 355 0.0 4.0 0.00 0.00 0.00 84 1020.1
20171123075453 59 344 1.0 3.0 0.00 0.00 0.00 82 1020.0
20171123074453 60 360 0.0 2.0 0.00 0.00 0.00 80 1020.0
20171123073453 60 355 2.0 3.0 0.00 0.00 0.00 77 1020.1
20171123072453 60 10 0.0 0.0 0.00 0.00 0.00 76 1020.1
20171123071453 60 10 0.0 0.0 0.00 0.00 0.00 77 1020.1
20171123070453 60 9 0.0 0.0 0.00 0.00 0.00 81 1020.2
20171123065453 60 9 0.0 0.0 0.00 0.00 0.00 80 1020.1
20171123064453 60 9 0.0 0.0 0.00 0.00 0.00 78 1019.8
20171123063454 60 9 0.0 0.0 0.00 0.00 0.00 79 1019.6
20171123062453 61 9 0.0 0.0 0.00 0.00 0.00 80 1019.6
20171123061453 61 9 0.0 0.0 0.00 0.00 0.00 80 1019.9
20171123060453 61 9 0.0 0.0 0.00 0.00 0.00 81 1020.1
20171123055453 61 9 0.0 0.0 0.00 0.00 0.00 81 1020.0
20171123054453 60 9 0.0 0.0 0.00 0.00 0.00 81 1019.7
20171123053453 60 9 0.0 0.0 0.00 0.00 0.00 81 1019.7
20171123052453 60 9 0.0 0.0 0.00 0.00 0.00 82 1019.6
20171123051453 60 360 0.0 0.0 0.00 0.00 0.00 82 1019.5
20171123050453 59 360 0.0 0.0 0.00 0.00 0.00 82 1019.5
20171123045453 59 360 0.0 0.0 0.00 0.00 0.00 82 1019.7
20171123044453 59 360 0.0 0.0 0.00 0.00 0.00 81 1019.5
20171123043454 59 360 0.0 0.0 0.00 0.00 0.00 80 1019.8
20171123042454 59 360 0.0 0.0 0.00 0.00 0.00 79 1019.7
20171123041453 59 360 0.0 0.0 0.00 0.00 0.00 79 1019.7
20171123040453 59 360 0.0 0.0 0.00 0.00 0.00 79 1019.6
20171123035453 59 360 0.0 0.0 0.00 0.00 0.00 80 1019.3
20171123034454 59 360 0.0 0.0 0.00 0.00 0.00 80 1019.4
20171123033453 59 360 0.0 0.0 0.00 0.00 0.00 80 1019.4
20171123032453 59 360 0.0 0.0 0.00 0.00 0.00 80 1019.0
20171123031453 59 360 0.0 0.0 0.00 0.00 0.00 79 1018.9
20171123030453 60 360 0.0 0.0 0.00 0.00 0.00 79 1019.0
20171123025453 60 360 0.0 0.0 0.00 0.00 0.00 79 1019.3
20171123024453 60 360 0.0 0.0 0.00 0.00 0.00 79 1019.0
20171123023453 60 360 0.0 0.0 0.00 0.00 0.00 79 1019.1
20171123022453 60 360 0.0 0.0 0.00 0.00 0.00 79 1019.1
20171123021454 60 360 0.0 0.0 0.00 0.00 0.00 79 1019.0
20171123020453 60 360 0.0 0.0 0.00 0.00 0.00 79 1018.8
20171123015454 61 360 0.0 0.0 0.00 0.00 0.00 79 1018.4
20171123014454 61 360 0.0 0.0 0.00 0.00 0.00 79 1018.4
20171123013453 61 360 0.0 0.0 0.00 0.00 0.00 78 1018.4
20171123012453 62 360 0.0 0.0 0.00 0.00 0.00 77 1018.4
20171123011454 62 9 0.0 0.0 0.00 0.00 0.00 76 1018.4
20171123010453 62 9 0.0 0.0 0.00 0.00 0.00 76 1018.7
20171123005453 63 15 0.0 0.0 0.00 0.00 0.00 75 1018.2
20171123004454 63 15 0.0 0.0 0.00 0.00 0.00 74 1017.8
20171123003453 64 15 0.0 0.0 0.00 0.00 0.00 73 1018.4
20171123002454 64 15 0.0 0.0 0.00 0.00 0.00 73 1018.2
20171123001453 64 15 0.0 0.0 0.00 0.00 0.00 74 1018.8
20171123000454 64 5 0.0 0.0 0.00 0.00 0.00 72 1018.5
20171122235453 64 5 0.0 0.0 0.00 0.00 0.00 72 1018.5
20171122234453 65 5 0.0 0.0 0.00 0.00 0.00 72 1018.6
20171122233454 65 5 0.0 0.0 0.00 0.00 0.00 70 1018.5
20171122232454 65 5 0.0 0.0 0.00 0.00 0.00 70 1018.3
20171122231454 65 5 0.0 1.0 0.00 0.00 0.00 70 1018.3
20171122230454 66 5 0.0 1.0 0.00 0.00 0.00 70 1018.5
20171122225454 66 5 0.0 2.0 0.00 0.00 0.00 68 1018.5
20171122224453 67 15 0.0 3.0 0.00 0.00 0.00 67 1018.9
20171122223454 67 15 0.0 2.0 0.00 0.00 0.00 66 1019.0
20171122222454 68 15 0.0 2.0 0.00 0.00 0.00 64 1019.4
20171122221454 68 360 0.0 2.0 0.00 0.00 0.00 63 1019.2
20171122220454 68 12 0.0 2.0 0.00 0.00 0.00 60 1019.2
20171122215454 68 12 0.0 2.0 0.00 0.00 0.00 59 1019.1
20171122214454 69 11 0.0 2.0 0.00 0.00 0.00 58 1019.0
20171122213454 69 11 0.0 3.0 0.00 0.00 0.00 58 1019.3
20171122212453 70 11 0.0 3.0 0.00 0.00 0.00 57 1019.6
20171122211454 70 11 0.0 2.0 0.00 0.00 0.00 57 1019.6
20171122210453 71 12 0.0 0.0 0.00 0.00 0.00 57 1019.6
20171122205454 71 12 0.0 0.0 0.00 0.00 0.00 57 1019.8
20171122204454 71 12 0.0 2.0 0.00 0.00 0.00 58 1019.9
20171122203454 70 11 0.0 3.0 0.00 0.00 0.00 57 1020.2
20171122202454 71 11 0.0 3.0 0.00 0.00 0.00 57 1020.3
20171122201454 71 12 0.0 3.0 0.00 0.00 0.00 58 1020.4
20171122200454 71 11 1.0 2.0 0.00 0.00 0.00 59 1020.4
20171122195454 70 11 0.0 2.0 0.00 0.00 0.00 61 1020.5
20171122194454 69 11 0.0 3.0 0.00 0.00 0.00 61 1020.7
20171122193454 69 12 0.0 3.0 0.00 0.00 0.00 62 1021.0
20171122192454 70 11 2.0 4.0 0.00 0.00 0.00 61 1021.0
20171122191454 69 12 2.0 4.0 0.00 0.00 0.00 62 1021.3
20171122190454 70 11 1.0 4.0 0.00 0.00 0.00 59 1021.2
20171122185454 71 12 1.0 5.0 0.00 0.00 0.00 56 1021.1